A-11 Canister half - Orbit

View from above orbital plane
View from above orbital plane
View from above satellite
View from above satellite

Ground track
Ground track

The orbit data is extracted from the following two-line orbital elements,

1 00051U 60009C   13145.20636441 -.00000086  00000-0  00000+0 0  4451
2 00051 047.2143 049.8135 0104108 050.7203 082.3750 12.18221524349537
Epoch (UTC): 25 May 2013 04:57:09
Eccentricity: 0.0104108
inclination: 47.2143°
perigee height: 1517 km
apogee height: 1683 km
right ascension of ascending node: 49.8135°
argument of perigee: 50.7203°
revolutions per day: 12.18221524
mean anomaly at epoch: 82.3750°
orbit number at epoch: 34953

The dashed part of the orbit path shows where the satellite is in the earth's shadow,  

Developed and maintained by Chris Peat, Heavens-Above GmbH. Please read the updated FAQ before sending e-mail. Imprint. DLR